Location: Newark
(48.8604°N, 2.3376°E)
Time: 19:54:48
(UTC+00:00)

Envisat - Pass Details

Date: 28 September 2021
Orbit: 764 x 766 km, 98.2° (Epoch: 20 October)

Event Time Altitude Azimuth Distance (km) Brightness Sun altitude
Rises 03:45:04 0° 28° (NNE) 3,243 7.0 -20.3°
Reaches altitude 10° 03:48:13 10° 48° (NE) 2,310 6.5 -19.8°
Maximum altitude 03:51:29 17° 88° (E) 1,866 5.9 -19.3°
Drops below altitude 10° 03:54:44 10° 129° (SE) 2,298 5.9 -18.8°
Sets 03:57:50 0° 149° (SSE) 3,218 6.4 -18.3°
